Theta_e
321 320 320 320 320 318 317 315 311 307 309 310 309 309 309 308 303 302 302 300 302 305 306 307 308 308 308 309 309 310 314 311 309 308 307 305 303 302
321 320 320 320 319 320 318 317 315 312 309 312 310 309 305 299 297 298 297 295 299 302 303 304 305 306 306 308 309 313 312 310 309 307 306 305 304 302
321 320 320 320 319 319 319 318 316 315 311 314 314 306 299 297 294 295 294 295 296 298 301 302 303 303 304 306 308 309 308 308 308 307 305 305 303 302
321 320 320 320 319 320 319 317 317 317 314 312 312 296 297 294 294 292 292 293 293 295 297 298 299 300 302 304 306 306 305 305 305 305 304 303 302 301
321 320 320 319 318 319 318 317 317 316 316 313 312 290 289 289 288 288 288 289 291 293 296 297 298 299 301 303 303 303 301 302 302 302 302 301 300 299
321 320 320 319 317 317 316 316 316 314 313 311 300 292 288 286 286 286 285 285 286 289 292 292 294 297 300 301 302 299 299 300 300 299 299 298 297 296
317 317 318 312 303 310 315 315 313 311 306 296 292 288 286 285 286 286 286 285 285 285 286 286 287 288 293 298 297 296 298 299 299 298 297 297 296 295
312 311 310 296 299 297 299 300 307 310 297 296 291 290 288 287 286 286 284 284 285 285 285 285 286 286 286 289 295 297 298 298 298 298 296 296 295 294
303 301 296 293 292 295 294 294 293 296 299 298 290 290 287 288 286 285 285 285 286 284 285 283 285 285 286 288 295 296 296 297 296 296 295 294 294 294
296 296 294 292 291 291 291 289 288 288 290 290 290 289 288 288 289 287 286 284 284 284 284 284 284 284 285 285 292 295 295 295 295 295 294 294 292 292
289 290 292 290 291 292 288 286 286 285 290 292 292 292 292 291 289 287 285 285 281 282 284 284 283 283 283 283 285 292 293 294 294 293 292 292 291 291
286 287 286 289 291 292 288 287 286 285 286 286 286 289 289 289 289 286 287 286 282 281 283 282 281 281 278 277 279 281 286 291 292 292 291 290 290 282
286 286 286 291 292 292 290 287 287 286 287 285 285 285 285 285 285 285 285 286 283 282 281 280 276 276 273 275 278 278 280 282 281 284 288 288 287 284
286 286 286 291 291 292 289 290 290 286 285 285 284 283 283 283 283 284 284 283 284 283 285 281 276 276 273 272 275 277 277 277 279 279 280 284 285 284
285 287 289 291 291 290 290 290 285 285 285 284 283 282 282 282 282 282 282 283 283 282 282 281 279 279 275 273 274 274 277 277 277 277 277 278 278 278
287 287 287 287 287 287 286 285 285 285 284 283 281 281 281 281 281 281 280 280 280 280 282 283 282 282 276 279 276 272 274 274 274 275 275 274 277 277
285 285 283 283 282 282 282 282 282 283 281 281 280 279 280 280 279 280 280 279 278 278 279 281 282 282 280 277 275 274 274 273 274 276 274 272 273 274
283 281 280 280 280 279 279 279 280 280 280 280 280 279 279 278 278 278 278 278 277 277 278 279 279 278 276 275 279 273 272 272 272 274 275 273 270 271
278 277 277 277 277 277 277 277 276 277 279 279 279 279 279 278 278 277 277 277 276 276 277 277 276 272 268 268 272 279 277 272 271 268 268 267 267 270
271 270 270 271 271 272 274 275 276 276 277 277 277 277 277 277 276 276 276 275 274 274 275 275 275 273 272 271 269 272 277 273 268 265 266 266 269 274
266 267 267 268 268 269 270 271 271 272 272 272 273 273 273 274 274 274 274 275 273 272 271 272 274 274 271 270 269 267 268 276 271 265 264 262 263 264
264 264 264 265 265 265 266 267 268 268 268 268 268 269 269 270 270 270 271 271 271 271 271 271 270 269 269 269 266 263 265 266 269 273 274 271 263 260
262 262 262 263 263 263 263 264 264 265 265 265 266 266 267 266 267 268 268 269 268 268 269 269 269 269 268 268 266 265 262 262 263 264 264 273 274 275
Wind_Speed
15 16 14 12 11 11 11 10 10 9 10 6 6 9 8 7 9 8 8 8 13 14 14 12 15 17 18 19 16 19 18 17 17 17 18 17 18 16
12 15 14 11 11 10 9 9 10 12 14 5 7 6 5 3 4 5 5 8 10 12 13 14 15 17 14 17 19 19 19 18 19 20 20 20 19 16
16 15 16 16 12 11 11 11 12 11 14 11 6 4 5 4 3 3 4 3 3 8 11 10 12 11 14 16 17 17 17 17 17 21 20 19 17 15
17 16 17 12 15 15 12 14 13 13 11 17 8 4 4 1 4 3 2 2 3 6 8 8 11 12 15 15 14 13 15 16 16 18 17 16 15 15
17 16 16 15 14 11 12 12 11 11 11 11 10 1 1 3 2 3 3 2 1 6 7 7 10 13 13 12 13 14 12 11 12 12 12 13 12 15
14 14 14 14 15 15 13 14 12 11 10 9 3 2 2 1 3 2 2 1 1 3 3 3 4 6 9 10 15 12 12 12 14 13 12 12 13 11
11 11 13 14 15 16 11 12 11 10 7 4 3 2 3 3 5 3 2 2 2 2 2 1 1 1 4 6 7 13 14 15 16 14 13 13 12 10
9 8 9 7 9 10 13 12 9 11 6 5 4 5 6 5 4 4 4 4 4 3 3 2 2 2 1 3 8 13 16 16 15 14 13 11 9 9
7 6 5 3 4 4 6 8 6 5 4 7 6 6 5 8 7 5 4 3 3 3 3 3 3 3 1 2 10 12 11 11 12 12 11 10 11 10
6 6 6 6 6 6 5 5 4 2 2 3 4 6 4 8 9 5 6 6 4 2 1 3 2 2 2 2 10 11 12 13 13 11 10 11 9 10
5 5 5 6 8 10 6 6 4 1 4 7 7 9 11 14 11 9 6 7 2 3 3 2 2 2 2 1 2 10 13 13 11 10 11 10 10 8
4 5 6 6 10 13 7 8 7 5 6 5 5 8 7 9 10 1 8 8 4 2 4 3 2 2 2 1 1 1 3 8 11 11 9 9 8 3
4 3 3 9 10 12 9 6 6 8 8 6 5 4 4 4 3 3 3 4 3 2 5 4 3 2 3 2 1 1 2 2 3 3 7 6 5 5
5 3 3 9 9 10 8 8 15 10 5 5 5 4 4 4 4 4 5 5 4 3 9 3 4 4 3 1 3 1 1 1 3 3 3 4 4 3
2 5 7 8 8 7 10 14 10 6 6 6 6 3 2 4 6 5 6 6 7 5 3 3 3 4 3 3 3 2 4 2 1 3 2 3 2 2
5 4 4 6 6 6 7 6 4 4 4 5 4 4 4 3 4 3 3 2 3 2 3 4 4 4 3 2 3 2 1 3 1 1 2 1 1 3
3 3 3 2 2 3 4 3 4 4 4 3 5 4 4 4 3 2 3 2 1 3 2 2 3 3 3 4 2 2 3 2 2 2 2 2 2 2
4 4 4 4 3 3 4 4 5 6 4 5 5 5 4 4 4 2 2 2 1 1 2 2 2 2 3 3 3 3 1 2 2 3 2 3 2 3
8 8 7 7 6 6 5 6 4 4 4 4 4 4 4 4 4 1 2 2 2 2 1 2 2 3 3 2 2 2 3 2 2 1 2 2 2 2
10 9 8 8 8 8 7 6 5 5 4 4 4 4 4 2 2 1 1 2 2 2 2 1 0 1 3 3 2 1 5 3 3 2 1 1 3 11
10 10 9 9 8 7 8 7 7 7 6 5 6 6 5 3 3 3 2 2 3 2 1 1 1 3 2 2 1 2 3 4 5 4 3 2 1 3
9 9 9 8 8 8 8 7 6 7 7 7 6 5 5 4 3 3 3 2 1 0 0 0 1 2 1 3 2 2 2 3 2 2 7 7 5 3
8 8 7 7 7 7 7 7 7 6 6 6 6 5 5 5 4 3 3 2 1 1 1 1 1 1 1 2 3 2 2 2 1 2 3 10 15 17
Wind_Direction
231 232 233 235 235 232 230 224 228 251 253 225 233 211 219 216 212 199 212 210 215 219 226 222 229 236 234 239 239 245 177 171 173 180 182 188 206 220
227 230 231 232 233 233 230 227 225 237 259 205 222 215 200 163 175 191 188 173 194 210 216 213 229 229 231 239 229 223 186 185 185 186 195 200 215 219
225 226 228 227 229 226 225 223 227 225 245 252 236 188 191 166 156 146 149 170 185 202 205 214 216 223 233 236 230 197 192 194 200 194 202 206 215 222
225 226 229 228 227 226 227 226 227 227 237 253 239 196 200 305 125 120 172 191 177 215 218 219 233 233 236 236 204 199 195 202 203 202 202 202 216 229
229 228 229 225 228 229 229 230 229 226 229 239 244 69 83 123 45 108 156 147 192 215 216 218 229 228 230 206 206 190 189 185 189 185 192 208 214 235
235 233 231 231 231 231 231 231 234 236 230 233 234 170 154 85 90 152 176 143 172 212 216 208 211 218 208 217 201 184 180 178 175 174 180 198 219 238
237 233 233 232 235 234 230 236 230 235 229 202 164 157 153 150 192 165 114 113 211 162 159 160 150 169 211 216 202 181 181 181 184 186 188 209 218 227
257 240 238 249 251 255 246 251 231 221 203 195 162 189 182 181 158 149 130 165 207 188 135 184 150 191 201 154 164 178 183 187 191 192 193 204 230 246
260 253 251 237 217 177 114 102 101 112 183 184 175 195 159 175 142 148 173 149 164 150 129 151 161 178 169 202 189 181 178 179 183 196 209 224 239 245
262 247 225 220 212 191 163 138 121 74 132 178 170 176 162 163 165 158 146 110 79 112 150 143 148 153 159 168 221 212 202 208 211 212 221 225 231 242
261 260 235 215 197 191 163 147 122 79 77 107 124 131 148 155 145 126 148 147 132 182 189 121 154 117 104 124 205 223 222 217 209 200 205 212 222 227
257 258 243 219 193 188 171 164 161 173 138 111 96 105 111 139 144 77 156 161 130 139 175 135 125 135 107 334 59 127 132 193 192 190 185 192 201 142
236 243 238 215 199 195 183 180 182 144 145 123 116 110 100 91 78 77 84 137 130 114 180 118 132 114 73 123 56 48 113 117 82 136 155 151 157 152
237 225 227 206 202 201 177 169 151 135 135 132 130 123 120 108 86 80 79 72 54 109 147 112 118 135 126 93 145 97 62 82 123 145 143 148 126 112
229 218 205 185 177 169 171 155 138 143 146 147 147 122 98 105 104 90 80 79 67 73 75 77 111 115 112 138 154 157 130 188 169 142 144 151 156 137
197 173 141 110 97 101 115 118 112 120 136 131 110 100 104 107 115 98 94 93 89 87 61 89 101 114 111 86 99 133 150 161 137 156 115 80 177 194
98 90 86 66 86 96 84 84 91 96 104 106 115 107 107 105 96 97 94 82 87 132 120 90 83 82 98 141 138 176 166 157 171 146 110 165 270 233
49 50 39 39 36 41 69 78 70 87 94 105 104 105 118 109 101 63 70 109 122 116 120 124 120 85 32 342 183 143 132 160 146 139 131 198 248 261
61 48 45 35 31 25 31 45 43 27 51 82 107 118 112 110 122 126 126 121 117 106 70 109 136 125 120 202 305 359 168 159 127 80 144 183 223 241
42 42 51 41 22 23 19 23 32 36 41 46 57 65 69 81 98 122 122 125 125 108 121 79 153 158 159 189 207 266 13 126 142 170 203 323 276 293
32 39 26 29 28 30 20 18 26 28 26 36 40 38 34 34 38 42 36 70 91 94 160 193 337 60 89 81 80 318 306 323 166 157 158 127 245 298
23 27 28 26 27 21 10 12 27 26 25 28 31 29 23 21 30 16 21 3 31 104 175 34 107 95 126 193 208 190 296 331 348 210 198 201 164 250
20 17 20 25 19 20 18 16 11 21 26 20 19 24 22 13 9 360 359 9 356 354 103 201 151 148 206 198 197 219 218 237 270 301 294 262 261 260